N894A SBSL-SBBE

Flight info

Callsign N894A
Flight time N/A
Altitude 16000
Route TEKI1A SAVIO Z81 PUPKI DCT
Aircraft TBM8/L-SG/C

Departure

Time 2026-05-05 02:39
Airport Marechal Cunha Machado International Airport (SBSL)

Arrival

Time N/A
Airport Val de Cans/Júlio Cezar Ribeiro International Airport (SBBE)
Time Latitude Longitude Altitude Speed Heading
2026-05-05 02:24 -2.58358 -44.23455 151 ft 0 kts 94°
2026-05-05 02:34 -2.58358 -44.23450 151 ft 4 kts 86°
2026-05-05 02:34 -2.58348 -44.23445 151 ft 1 kts 328°
2026-05-05 02:34 -2.58373 -44.23485 152 ft 12 kts 205°
2026-05-05 02:34 -2.58433 -44.23454 152 ft 9 kts 132°
2026-05-05 02:35 -2.58439 -44.23447 152 ft 0 kts 131°
2026-05-05 02:35 -2.58457 -44.23426 152 ft 13 kts 130°
2026-05-05 02:35 -2.58546 -44.23420 153 ft 21 kts 210°
2026-05-05 02:36 -2.58697 -44.23535 156 ft 32 kts 218°
2026-05-05 02:36 -2.58890 -44.23689 159 ft 38 kts 219°
2026-05-05 02:36 -2.59108 -44.23865 162 ft 42 kts 218°
2026-05-05 02:36 -2.59343 -44.24052 169 ft 44 kts 219°
2026-05-05 02:37 -2.59576 -44.24241 177 ft 32 kts 223°
2026-05-05 02:37 -2.59663 -44.24351 180 ft 10 kts 204°
2026-05-05 02:37 -2.59697 -44.24341 181 ft 4 kts 98°
2026-05-05 02:37 -2.59694 -44.24334 181 ft 0 kts 36°
2026-05-05 02:38 -2.59692 -44.24333 181 ft 2 kts 35°
2026-05-05 02:38 -2.59550 -44.24219 177 ft 55 kts 39°
2026-05-05 02:39 -2.59109 -44.23863 183 ft 103 kts 36°
2026-05-05 02:39 -2.58469 -44.23400 374 ft 119 kts 35°
2026-05-05 02:39 -2.57746 -44.22902 643 ft 133 kts 39°
2026-05-05 02:39 -2.56999 -44.22343 1062 ft 130 kts 36°
2026-05-05 02:40 -2.56248 -44.21859 1567 ft 128 kts 34°
2026-05-05 02:40 -2.55498 -44.21403 2010 ft 128 kts 33°
2026-05-05 02:40 -2.54880 -44.20776 2368 ft 129 kts 66°
2026-05-05 02:40 -2.54341 -44.20070 2800 ft 131 kts 41°
2026-05-05 02:41 -2.53554 -44.19594 3186 ft 138 kts 15°
2026-05-05 02:41 -2.52621 -44.19839 3595 ft 147 kts 323°
2026-05-05 02:41 -2.51949 -44.20614 4022 ft 150 kts 307°
2026-05-05 02:41 -2.51286 -44.21426 4473 ft 151 kts 309°
2026-05-05 02:42 -2.50622 -44.22248 4929 ft 153 kts 309°
2026-05-05 02:42 -2.49945 -44.23080 5373 ft 155 kts 309°
2026-05-05 02:42 -2.49265 -44.23920 5809 ft 156 kts 310°
2026-05-05 02:42 -2.48581 -44.24767 6253 ft 157 kts 310°
2026-05-05 02:43 -2.47899 -44.25611 6670 ft 159 kts 310°
2026-05-05 02:43 -2.47203 -44.26470 7088 ft 159 kts 310°
2026-05-05 02:43 -2.46505 -44.27333 7501 ft 160 kts 311°
2026-05-05 02:43 -2.45803 -44.28200 7920 ft 161 kts 311°
2026-05-05 02:44 -2.45096 -44.29073 8341 ft 161 kts 311°
2026-05-05 02:44 -2.44389 -44.29948 8760 ft 162 kts 311°
2026-05-05 02:44 -2.43847 -44.30934 9192 ft 165 kts 283°
2026-05-05 02:44 -2.43763 -44.32088 9579 ft 168 kts 271°
2026-05-05 02:45 -2.43695 -44.33261 9975 ft 169 kts 273°
2026-05-05 02:45 -2.43628 -44.34437 10338 ft 170 kts 273°
2026-05-05 02:45 -2.43567 -44.35605 10703 ft 171 kts 273°
2026-05-05 02:45 -2.43505 -44.36792 11075 ft 171 kts 273°
2026-05-05 02:46 -2.43443 -44.37983 11441 ft 172 kts 273°
2026-05-05 02:46 -2.43379 -44.39178 11809 ft 172 kts 273°
2026-05-05 02:46 -2.43316 -44.40378 12171 ft 173 kts 273°
2026-05-05 02:46 -2.43252 -44.41582 12538 ft 174 kts 273°
2026-05-05 02:47 -2.43189 -44.42792 12904 ft 174 kts 273°
2026-05-05 02:47 -2.43124 -44.44005 13267 ft 175 kts 273°
2026-05-05 02:47 -2.43061 -44.45208 13629 ft 176 kts 273°
2026-05-05 02:47 -2.42996 -44.46432 13970 ft 176 kts 273°
2026-05-05 02:48 -2.42932 -44.47647 14281 ft 177 kts 274°
2026-05-05 02:48 -2.42866 -44.48891 14600 ft 178 kts 274°
2026-05-05 02:48 -2.42801 -44.50122 14910 ft 179 kts 274°
2026-05-05 02:48 -2.42735 -44.51370 15233 ft 179 kts 274°
2026-05-05 02:49 -2.42670 -44.52618 15536 ft 180 kts 274°
2026-05-05 02:49 -2.42601 -44.53871 15844 ft 181 kts 274°
2026-05-05 02:49 -2.42532 -44.55137 15997 ft 193 kts 274°
2026-05-05 02:49 -2.42453 -44.56542 16013 ft 212 kts 274°
2026-05-05 02:50 -2.42370 -44.58068 16012 ft 227 kts 274°
2026-05-05 02:50 -2.42285 -44.59689 16010 ft 239 kts 274°
2026-05-05 02:50 -2.42200 -44.61377 16009 ft 247 kts 274°
2026-05-05 02:50 -2.42109 -44.63117 16009 ft 254 kts 274°
2026-05-05 02:51 -2.42016 -44.64893 16008 ft 258 kts 274°
2026-05-05 02:51 -2.41921 -44.66696 16007 ft 261 kts 274°
2026-05-05 02:51 -2.41825 -44.68521 16012 ft 264 kts 274°
2026-05-05 02:51 -2.41728 -44.70358 16010 ft 265 kts 274°
2026-05-05 02:52 -2.41630 -44.72204 16013 ft 267 kts 274°
2026-05-05 02:52 -2.41534 -44.74034 16012 ft 268 kts 274°
2026-05-05 02:52 -2.41496 -44.74747 16012 ft 268 kts 274°
2026-05-05 02:52 -2.41425 -44.76124 16009 ft 268 kts 274°
2026-05-05 02:53 -2.41350 -44.77605 16009 ft 268 kts 274°
2026-05-05 02:53 -2.41278 -44.78980 16007 ft 269 kts 274°
2026-05-05 02:53 -2.41219 -44.80092 16010 ft 269 kts 274°
2026-05-05 02:54 -2.41212 -44.80235 16010 ft 269 kts 274°
2026-05-05 02:54 -2.41114 -44.82074 16011 ft 269 kts 274°
2026-05-05 02:54 -2.41065 -44.82987 16010 ft 269 kts 274°
2026-05-05 02:55 -2.40966 -44.84857 16010 ft 269 kts 274°
2026-05-05 02:55 -2.40874 -44.86573 16011 ft 269 kts 274°
2026-05-05 02:56 -2.40831 -44.87346 16010 ft 269 kts 274°
2026-05-05 02:56 -2.40717 -44.88381 16006 ft 268 kts 282°
2026-05-05 02:56 -2.40306 -44.89839 16006 ft 268 kts 288°
2026-05-05 02:56 -2.39919 -44.91168 16010 ft 268 kts 287°
2026-05-05 02:57 -2.39592 -44.92343 16009 ft 268 kts 287°
2026-05-05 02:57 -2.39221 -44.93678 16012 ft 268 kts 287°